"Pseudo-MPEC" for W05058

Created 2023 Nov 30 6:22:08 UT using Find_Orb

Click here for an explanation of pseudo-MPECs

 
 Astrometry: 
     W05058 * C2023 11 17'D:AstrometryWx8GQEQWXyB))Qs8TqN,i!baredacted;Z']$AoO18
     W05058   C2023 11 17Yp-YHe7!-t*_GvmIGu06wrRS,Yj0U9fclick40sG2^93F3q_[m,^O18
     W05058   C2023 11 17:'n*$@\1LpV6KoV9%PakhXh3OMHvYa6;/AsPW+VMamx0#8jSy[vSO18
     W05058   C2023 11 17:@hereCli@%PVt9QnicS6nGi$J'nXZ*.gDL-gv-xrtIfc2?=#3dlO18
     W05058   C2023 11 17liM`GaDUNh'[02qRliJf9k*%d!(RfNDU!^V)1DKlZ5Fl-x8v#YiHO18
     W05058   C2023 11 17=ofor2w^m[UIx84B=[VS'H`;6)tQku=/L6HRR;ha?fySb=4?ppA0O18
     W05058   C2023 11 19v6FYd0UU'?(=g4J\1!B1/_(wXxmSbCjbTifdDn)eJo5,q!bn2qSnO18
     W05058   C2023 11 19HeF.9.Jc9('explanation8P0rpZg+@_`(-LS:@%frCN1,y'ol0vO18
     W05058   C2023 11 19*:`#0tjp:)Vwj)P*#Rcj$-j9qqbd[8nvRK`LpVfSgcDJn(Mlq%yjO18

Station data:
(O18) WFST, Lenghu  (N38.607601 E93.895220).

Orbital elements:  W05058
   Perihelion 2024 May 18.30294 +/- 158 TT =  7:16:13 (JD 2460448.80294)
Epoch 2023 Nov 19.0 TT = JDT 2460267.5   Earth MOID: 0.3266   Me: 0.0395
M 204.60106981 +/- 70               (J2000 ecliptic)             AutoNEOCP
n   0.85712306 +/- 0.331            Peri.  354.40518 +/- 35
a   1.09759114 +/- 0.283            Node   241.55491 +/- 3.7
e   0.6170739 +/- 0.238             Incl.   24.11276 +/- 37
P   1.15/420.00d           H 20.23  G  0.15   U 12.0  SR
q 0.42029622 +/- 0.471    Q 1.77488606 +/- 1.98
From 9 observations 2023 Nov. 17-19; mean residual 0".23
Residuals in arcseconds: 
231117 O18  .17-  .09-    231117 O18  .06-  .05-    231119 O18  .49+  .08+    
231117 O18  .06+  .50-    231117 O18  .03+  .24+    231119 O18  .01+  .03+    
231117 O18  .04+  .09+    231117 O18  .10+  .31+    231119 O18  .50-  .12-    

Ephemerides (geocentric):
Date (UTC) HH   RA             Dec           delta  r     elong  mag " sig PA
---- --------  ------------   ------------  ------ ------ -----  --- --------
2023 11 30 06  04 12 16.359   +16 25 03.36  .74412 1.7284 174.3 21.1 4151 119
2023 11 30 07  04 12 08.966   +16 24 04.21  .74407 1.7283 174.3 21.1 4186 119
2023 11 30 08  04 12 01.573   +16 23 05.04  .74402 1.7282 174.2 21.1 4222 119
2023 11 30 09  04 11 54.181   +16 22 05.85  .74397 1.7281 174.2 21.1 4257 119
2023 11 30 10  04 11 46.789   +16 21 06.65  .74392 1.7280 174.1 21.1 4293 119
2023 11 30 11  04 11 39.398   +16 20 07.44  .74387 1.7279 174.1 21.1 4328 119
2023 11 30 12  04 11 32.008   +16 19 08.22  .74382 1.7278 174.0 21.1 4364 119
2023 11 30 13  04 11 24.618   +16 18 08.98  .74377 1.7277 174.0 21.1 4400 119
2023 11 30 14  04 11 17.229   +16 17 09.73  .74372 1.7276 173.9 21.1 4437 119
2023 11 30 15  04 11 09.841   +16 16 10.47  .74367 1.7275 173.8 21.1 4473 119
2023 11 30 16  04 11 02.453   +16 15 11.19  .74362 1.7274 173.8 21.1 4510 119
2023 11 30 17  04 10 55.066   +16 14 11.90  .74358 1.7273 173.7 21.1 4547 120
2023 11 30 18  04 10 47.679   +16 13 12.60  .74353 1.7272 173.7 21.1 4584 120
2023 11 30 19  04 10 40.294   +16 12 13.29  .74348 1.7271 173.6 21.1 4621 120
2023 11 30 20  04 10 32.909   +16 11 13.96  .74344 1.7270 173.6 21.1 4658 120
2023 11 30 21  04 10 25.525   +16 10 14.62  .74340 1.7269 173.5 21.1 4696 120
2023 11 30 22  04 10 18.142   +16 09 15.27  .74335 1.7268 173.4 21.1 4733 120
2023 11 30 23  04 10 10.760   +16 08 15.91  .74331 1.7267 173.4 21.1 4771 120
2023 12 01 00  04 10 03.378   +16 07 16.54  .74327 1.7266 173.3 21.1 4810 120
2023 12 01 01  04 09 55.998   +16 06 17.16  .74322 1.7265 173.3 21.1 4848 120
2023 12 01 02  04 09 48.618   +16 05 17.77  .74318 1.7264 173.2 21.1 4886 120
2023 12 01 03  04 09 41.239   +16 04 18.36  .74314 1.7263 173.2 21.1 4925 120
2023 12 01 04  04 09 33.861   +16 03 18.94  .74310 1.7262 173.1 21.1 4964 120
2023 12 01 05  04 09 26.485   +16 02 19.52  .74306 1.7261 173.0 21.1 5003 120
2023 12 01 06  04 09 19.109   +16 01 20.08  .74302 1.7260 173.0 21.1 5042 120
2023 12 01 07  04 09 11.734   +16 00 20.64  .74299 1.7259 172.9 21.1 5082 120
2023 12 01 08  04 09 04.360   +15 59 21.18  .74295 1.7258 172.8 21.1 5121 120
2023 12 01 09  04 08 56.987   +15 58 21.71  .74291 1.7257 172.8 21.1 5161 120
2023 12 01 10  04 08 49.616   +15 57 22.24  .74288 1.7256 172.7 21.1 5201 120
2023 12 01 11  04 08 42.245   +15 56 22.75  .74284 1.7255 172.7 21.1 5241 120
2023 12 01 12  04 08 34.875   +15 55 23.25  .74280 1.7254 172.6 21.1 5281 120
2023 12 01 13  04 08 27.507   +15 54 23.75  .74277 1.7253 172.5 21.1 5322 120
2023 12 01 14  04 08 20.140   +15 53 24.24  .74274 1.7252 172.5 21.2 5363 120
2023 12 01 15  04 08 12.774   +15 52 24.71  .74270 1.7251 172.4 21.2 5404 120
2023 12 01 16  04 08 05.409   +15 51 25.18  .74267 1.7250 172.3 21.2 5445 120
2023 12 01 17  04 07 58.045   +15 50 25.64  .74264 1.7249 172.3 21.2 5486 120
2023 12 01 18  04 07 50.683   +15 49 26.10  .74261 1.7248 172.2 21.2 5528 120
2023 12 01 19  04 07 43.321   +15 48 26.54  .74258 1.7247 172.2 21.2 5569 120
2023 12 01 20  04 07 35.961   +15 47 26.98  .74254 1.7246 172.1 21.2 5611 120
2023 12 01 21  04 07 28.603   +15 46 27.40  .74252 1.7245 172.0 21.2 5653 120
2023 12 01 22  04 07 21.245   +15 45 27.82  .74249 1.7244 172.0 21.2 5696 120
2023 12 01 23  04 07 13.889   +15 44 28.24  .74246 1.7243 171.9 21.2 5738 120
2023 12 02 00  04 07 06.535   +15 43 28.64  .74243 1.7242 171.8 21.2 5781 120
2023 12 02 01  04 06 59.181   +15 42 29.04  .74240 1.7241 171.8 21.2 5824 120
2023 12 02 02  04 06 51.830   +15 41 29.43  .74238 1.7240 171.7 21.2 5867 120
2023 12 02 03  04 06 44.479   +15 40 29.82  .74235 1.7239 171.6 21.2 5910 120
2023 12 02 04  04 06 37.130   +15 39 30.19  .74232 1.7238 171.6 21.2 5954 120
2023 12 02 05  04 06 29.782   +15 38 30.56  .74230 1.7236 171.5 21.2 5997 120